TimeCST,TemperatureF,Dew PointF,Humidity,Sea Level PressureIn,VisibilityMPH,Wind Direction,Wind SpeedMPH,Gust SpeedMPH,PrecipitationIn,Events,Conditions,WindDirDegrees,DateUTC
12:53 AM,28.0,21.0,75,29.91,10.0,NNE,5.8,-,N/A,,Partly Cloudy,20,2013-02-27 06:53:00
1:05 AM,28.4,21.2,74,29.88,10.0,NNE,5.8,-,N/A,,Mostly Cloudy,20,2013-02-27 07:05:00
1:53 AM,28.9,21.9,75,29.92,10.0,North,5.8,-,N/A,,Overcast,10,2013-02-27 07:53:00
2:53 AM,28.9,23.0,78,29.90,10.0,North,11.5,18.4,N/A,,Overcast,10,2013-02-27 08:53:00
3:53 AM,28.9,23.0,78,29.89,10.0,North,10.4,19.6,N/A,,Overcast,360,2013-02-27 09:53:00
4:53 AM,28.9,23.0,78,29.90,10.0,North,10.4,-,N/A,,Overcast,10,2013-02-27 10:53:00
5:53 AM,28.9,23.0,78,29.90,10.0,North,10.4,-,N/A,,Overcast,360,2013-02-27 11:53:00
6:53 AM,28.0,23.0,81,29.92,10.0,North,8.1,-,N/A,,Overcast,360,2013-02-27 12:53:00
7:53 AM,28.9,23.0,78,29.93,10.0,North,9.2,-,N/A,,Overcast,350,2013-02-27 13:53:00
8:53 AM,30.0,24.1,79,29.92,10.0,North,10.4,-,N/A,,Overcast,350,2013-02-27 14:53:00
9:50 AM,30.2,24.8,80,29.89,10.0,NNW,11.5,-,N/A,,Scattered Clouds,340,2013-02-27 15:50:00
9:53 AM,32.0,24.1,73,29.92,10.0,North,13.8,-,N/A,,Scattered Clouds,350,2013-02-27 15:53:00
10:53 AM,33.1,24.1,70,29.91,10.0,North,13.8,28.8,N/A,,Clear,350,2013-02-27 16:53:00
12:53 PM,37.0,23.0,57,29.90,10.0,North,13.8,24.2,N/A,,Clear,360,2013-02-27 18:53:00
1:53 PM,39.0,21.9,50,29.90,10.0,NNE,11.5,-,N/A,,Clear,20,2013-02-27 19:53:00
2:53 PM,37.9,21.9,53,29.90,10.0,NNE,15.0,23.0,N/A,,Clear,30,2013-02-27 20:53:00
4:53 PM,34.0,23.0,64,29.94,10.0,North,10.4,-,N/A,,Clear,10,2013-02-27 22:53:00
5:53 PM,33.1,23.0,66,29.96,10.0,NE,6.9,-,N/A,,Clear,50,2013-02-27 23:53:00
6:53 PM,30.9,23.0,72,30.01,10.0,NNE,9.2,-,N/A,,Clear,20,2013-02-28 00:53:00
7:53 PM,30.0,21.9,72,30.01,10.0,NNE,8.1,-,N/A,,Clear,20,2013-02-28 01:53:00
8:53 PM,28.9,21.9,75,30.02,10.0,North,5.8,-,N/A,,Clear,10,2013-02-28 02:53:00
9:53 PM,28.0,21.0,75,30.04,10.0,North,5.8,-,N/A,,Clear,350,2013-02-28 03:53:00
10:53 PM,28.0,19.9,72,30.04,10.0,North,8.1,-,N/A,,Clear,350,2013-02-28 04:53:00
11:53 PM,26.1,19.9,78,30.05,10.0,NW,5.8,-,N/A,,Clear,320,2013-02-28 05:53:00